Regional Weather Roundup
Issued by NWS

Home | Current Version | Previous Version | Graphics & Text | Print | Product List | Glossary Off
Versions: 1 2 3 4 5 6 7 8 9 10 11 12 13 14 15 16 17 18 19 20 21 22 23 24 25 26 27 28 29 30 31 32 33 34 35 36 37 38 39 40 41 42 43 44 45 46 47 48 49 50

708
ASUS43 KMPX 221310
RWRMN
WEATHER ROUNDUP FOR MINNESOTA
NATIONAL WEATHER SERVICE TWIN CITIES/CHANHASSEN MN
700 AM CST SUN JAN 22 2017


NOTE: "FAIR" INDICATES FEW OR NO CLOUDS BELOW 12,000 FEET WITH NO
SIGNIFICANT WEATHER AND/OR OBSTRUCTIONS TO VISIBILITY. N/A MEANS
CURRENT SKY AND/OR WEATHER CONDITIONS ARE NOT AVAILABLE.

MNZ060>063-068>070-221400-
   Twin Cities Metro

CITY           SKY/WX    TMP DP  RH WIND       PRES   REMARKS
TWIN CITIES    CLOUDY    35  33  92 N7        29.64R WCI  29
ST PAUL        CLOUDY    35  35 100 NW7       29.65R WCI  29
CRYSTAL        CLOUDY    34  32  92 N8        29.63R FOG     WCI  27
BLAINE         FOG       36  36 100 NW6       29.64R VSB 3/4
LAKEVILLE        N/A     34  34 100 NW3       29.64R FOG
EDEN PRAIRIE   CLOUDY    35  34  96 N7        29.63R FOG     WCI  29
SOUTH ST PAUL  CLOUDY    35  35  99 N5        29.64R FOG     WCI  31
LAKE ELMO      FOG       34  34 100 NW3       29.64R VSB 3/4
$$
MNZ001>005-007-008-013>017-022>024-027-028-221400-
   Northwest Minnesota

CITY           SKY/WX    TMP DP  RH WIND       PRES   REMARKS
BEMIDJI        FOG       32  32 100 CALM      29.64S VSB 1/2
HALLOCK        FOG       34  34 100 CALM      29.67R VSB 3/4
ROSEAU         HAZE      34  28  80 CALM      29.66R VSB 1/2
WARROAD        FOG       34  28  80 CALM      29.67R VSB 1
THIEF RVR FALL FOG       33  32  96 CALM      29.67R VSB 1/4
CROOKSTON      FOG       34  34 100 CALM      29.68R VSB 1/2
FOSSTON        FOG       30  30 100 CALM      29.66R VSB 1/4
DETROIT LAKES  FOG       34  34 100 CALM      29.66S VSB 1/2
MOORHEAD       CLOUDY    34  32  93 NW3       29.69R FOG
PARK RAPIDS    FOG       34  31  88 W5        29.64R VSB 1   WCI  30
MAHNOMEN       FOG       32  32  99 W3        29.66R VSB 1/4
$$
MNZ006-009>011-018-025>026-221400-
   North Central Minnesota

CITY           SKY/WX    TMP DP  RH WIND       PRES   REMARKS
BAUDETTE       FOG       33  32  96 CALM      29.65R VSB 1/2
FLAG ISLAND    FOG       32  32 100 CALM      29.66R VSB 1
INTL FALLS     FOG       34  32  92 CALM      29.65R VSB 1/2
WASKISH        CLOUDY    34  34 100 CALM      29.65R FOG
BIG FORK       FOG       34  34 100 CALM      29.64R VSB 3/4
LONGVILLE      FOG       34  34 100 CALM      29.64R VSB 3/4
GRAND RAPIDS   FOG       33  33 100 N3        29.65R VSB 1/4
CRANE LAKE     CLOUDY    30  30 100 CALM      29.66R FOG
ORR            DRIZZLE   34  30  86 CALM      29.61S
COOK           LGT SNOW  34  34 100 CALM      29.63S
WALKER         FOG       32  32  99 CALM      29.64S VSB 1/2
$$
MNZ012-019>021-037-221400-
   Northeast Minnesota

CITY           SKY/WX    TMP DP  RH WIND       PRES   REMARKS
DULUTH         LGT RAIN  34  34 100 N6        29.61R FOG     WCI  29
ELY            CLOUDY    32  32 100 CALM      29.62R FOG
HIBBING        CLOUDY    32  32 100 N3        29.62R
EVELETH        CLOUDY    34  33  99 CALM      29.63S FOG
DULUTH HARBOR  CLOUDY    36  34  93 CALM      29.64R
TWO HARBORS    LGT RAIN  37  34  87 CALM      29.60R
SILVER BAY     CLOUDY    36  36 100 CALM      29.60R
GRAND MARAIS     N/A     38  33  82 VRB3      29.62R
G MARAIS ARPRT CLOUDY    30  28  93 N7        29.59R WCI  23
$$
MNZ029>031-032-039>041-046>048-054>057-064-221400-
   West Central Minnesota

CITY           SKY/WX    TMP DP  RH WIND       PRES   REMARKS
FERGUS FALLS   FOG       34  34 100 N6        29.71R VSB 1/2 WCI  29
WHEATON        CLOUDY    39  39 100 W8        29.71R FOG
MORRIS         FOG       34  34 100 NW7       29.67R VSB 1/2 WCI  28
ALEXANDRIA     FOG       33  33 100 NW3       29.66R VSB 1/2
ELBOW LAKE     CLOUDY    32  32 100 W6        29.67R FOG     WCI  27
WADENA         CLOUDY    34  34 100 CALM      29.65R FOG
GLENWOOD       CLOUDY    34  34 100 NW5       29.66R FOG     WCI  30
APPLETON       CLOUDY    36  34  93 W5        29.69R FOG
ORTONVILLE     CLOUDY    34  32  93 CALM      29.69R FOG
MADISON        CLOUDY    36  36 100 NW6       29.69R FOG
WILLMAR        CLOUDY    34  34 100 CALM      29.67R FOG
$$
MNZ033>034-036-042>043-049>051-058-059-221400-
   Central Minnesota

CITY           SKY/WX    TMP DP  RH WIND       PRES   REMARKS
ST CLOUD       CLOUDY    33  33 100 N3        29.65R FOG
SAUK CENTRE    FOG       32  32 100 NW3       29.66R VSB 1/2
PAYNESVILLE    FOG       33  33 100 N3        29.66R VSB 3/4
AITKIN         CLOUDY    36  34  93 CALM      29.63R FOG
PINE RIVER     FOG       34  34 100 CALM      29.69R VSB 1/2
BRAINERD       CLOUDY    33  33 100 W3        29.65R FOG
STAPLES        CLOUDY    32  32 100 CALM      29.65R FOG
LONG PRAIRIE   CLOUDY    32  32 100 CALM      29.66R FOG
LITTLE FALLS   CLOUDY    34  32  93 CALM      29.65R FOG
LITCHFIELD     FOG       36  36 100 NW7       29.65R VSB 3/4
BUFFALO        CLOUDY    34  33  97 NW3       29.66R FOG
MAPLE LAKE     CLOUDY    35  35 100 N3        29.66R FOG
HUTCHINSON     CLOUDY    35  35 100 N6        29.66R WCI  30
$$
MNZ037-044-045-052-053-221400-
   East Central Minnesota

CITY           SKY/WX    TMP DP  RH WIND       PRES   REMARKS
PRINCETON      CLOUDY    36  34  93 CALM      29.65R FOG
MORA           CLOUDY    34  32  93 CALM      29.65S
CAMBRIDGE      CLOUDY    36  36 100 CALM      29.63R FOG
RUSH CITY      CLOUDY    34  34 100 NW3       29.64R FOG
MOOSE LAKE     CLOUDY    34  32  93 CALM      29.61R
HINCKLEY       CLOUDY    34  34 100 CALM      29.63R
CLOQUET        CLOUDY    34  34 100 CALM      29.61S FOG
MCGREGOR       CLOUDY    34  34 100 CALM      29.63S VSB 1/2
$$
MNZ071>073-080-081-089-090-097-098-221400-
   Southwest Minnesota

CITY           SKY/WX    TMP DP  RH WIND       PRES   REMARKS
MONTEVIDEO     CLOUDY    34  34 100 N5        29.70R FOG     WCI  30
GRANITE FALLS  CLOUDY    35  35 100 NW7       29.70R FOG     WCI  29
CANBY          CLOUDY    35  34  98 CALM      29.71R FOG
MARSHALL       CLOUDY    33  33 100 NW12      29.69R FOG     WCI  24
REDWOOD FALLS  FOG       34  33  96 NW7       29.67R VSB 1   WCI  28
OLIVIA         FOG       34  34 100 NW5       29.66R VSB 1   WCI  30
PIPESTONE      CLOUDY    34  34 100 NW10G17   29.67R FOG     WCI  26
WINDOM         CLOUDY    34  34 100 NW10      29.66R FOG     WCI  26
WORTHINGTON    MIX PCPN  33  32  96 NW10      29.67R FOG     WCI  25
JACKSON        FOG       32  32 100 N6        29.66R VSB 1/2 WCI  26
TRACY          DRZL/FOG  34  34 100 NW8       29.68R VSB 3/4 WCI  27
SLAYTON        CLOUDY    32  32 100 NW7       29.66R FOG     WCI  26
$$
MNZ065>067-074>077-082>085-091>093-221400-
   South Central Minnesota

CITY           SKY/WX    TMP DP  RH WIND       PRES   REMARKS
MANKATO        FOG       34  33  96 NW7       29.65R VSB 1/2 WCI  28
NEW ULM        FOG       34  34 100 W6        29.66R VSB 1   WCI  29
ST JAMES       FOG       34  34 100 NW7       29.67R VSB 3/4 WCI  28
FAIRMONT       FOG       34  33  96 NW9       29.66R VSB 3/4 WCI  27
GLENCOE        CLOUDY    35  35 100 N6        29.64R FOG     WCI  29
OWATONNA       FOG       34  32  93 CALM      29.63R VSB 1/2
WASECA         FOG       32  32 100 NW3       29.65R VSB 1/2
ALBERT LEA     FOG       34  34 100 CALM      29.63R VSB 1/4
$$
MNZ078>079-086>088-094>096-221400-
   Southeast Minnesota

CITY           SKY/WX    TMP DP  RH WIND       PRES   REMARKS
ROCHESTER      FOG       32  32 100 W5        29.62R VSB 1/4 WCI  27
RED WING       FOG       36  34  93 NW3       29.63R VSB 1/4
STANTON        FOG       35  34  96 NW3       29.62R VSB 1/2
DODGE CENTER   FOG       34  34 100 CALM      29.62R VSB 1/4
WINONA         FOG       34  34 100 CALM      29.64R VSB 3/4
AUSTIN         FOG       34  32  93 CALM      29.62R VSB 1/4
PRESTON        CLOUDY    32  32  99 NW7       29.61R FOG     WCI  26
$$
ABBREVIATIONS USED IN REMARKS
   TC - TEMPERATURES IN CELSIUS
  WCI - WIND CHILL INDEX
   HX - HEAT INDEX
  VSB - VISIBILITY
$$




USA.gov is the U.S. government's official web portal to all federal, state and local government web resources and services.